This demonstration page uses our WeatherBlox Daily Observations layout. Learn more.

Left ArrowRight Arrow

39.51506, -84.39828

Hourly Observations for June 21, 2019

Temp ( °F °C ) Dew Point ( °F °C ) Humidity (%) Winds ( mph kmh ) Pressure ( in mb ) Visibility ( mi km ) Precip ( " mm )
12:15 am 00:15 Cloudy 64 18 63 17 94 94 N N/A 29.86 1011 10 16 N/A
12:35 am 00:35 Cloudy 64 17.8 62 16.8 94 94 NNW 6 9 29.86 1011 10 16 N/A
12:55 am 00:55 Cloudy 64 17.8 63 17 95 95 NW 5 7 29.88 1012 10 16 N/A
1:15 am 01:15 Cloudy 64 17.8 62 16.9 95 95 NNW 3 6 29.87 1012 10 16 N/A
1:35 am 01:35 Cloudy 64 17.8 63 17 95 95 WNW 3 6 29.88 1012 10 16 N/A
1:55 am 01:55 Cloudy 64 17.8 63 17 95 95 N N/A 29.87 1012 10 16 N/A
2:15 am 02:15 Cloudy 64 17.7 62 16.9 95 95 NW 3 6 29.89 1012 10 16 N/A
2:35 am 02:35 Partly Cloudy 64 17.5 62 16.6 95 95 N N/A 29.89 1012 10 16 N/A
2:55 am 02:55 Clear 62 16.9 61 16.2 96 96 N N/A 29.89 1012 10 16 N/A
3:15 am 03:15 Mostly Cloudy with Mist and Fog 61 16.1 60 15.7 97 97 N N/A 29.89 1012 5 8 N/A
3:35 am 03:35 Cloudy with Mist and Fog 62 16.5 61 16.2 98 98 N N/A 29.90 1013 5 8 N/A
3:55 am 03:55 Cloudy with Mist and Fog 62 16.9 62 16.6 98 98 N N/A 29.90 1013 7 11 N/A
4:15 am 04:15 Cloudy 63 17.1 62 16.6 97 97 N N/A 29.91 1013 10 16 N/A
4:35 am 04:35 Cloudy 63 17.2 62 16.5 96 96 NNW 5 7 29.91 1013 10 16 N/A
4:55 am 04:55 Cloudy 63 17.2 62 16.5 96 96 NW 3 6 29.92 1013 10 16 N/A
5:15 am 05:15 Cloudy 63 17.2 62 16.4 95 95 NW 5 7 29.93 1014 10 16 N/A
5:35 am 05:35 Cloudy 63 17.1 61 16.3 95 95 NNW 3 6 29.93 1014 10 16 N/A
5:55 am 05:55 Clear 62 16.7 61 15.9 95 95 N N/A 29.94 1014 7 11 N/A
6:15 am 06:15 Mostly Cloudy with Mist and Fog 62 16.4 60 15.8 96 96 N N/A 29.95 1014 7 11 N/A
6:35 am 06:35 Partly Cloudy with Mist and Fog 61 16.3 60 15.7 96 96 N 3 6 29.96 1015 7 11 N/A
6:55 am 06:55 Mostly Cloudy 63 17 61 16 94 94 N 3 6 29.97 1015 10 16 N/A
7:15 am 07:15 Sunny 63 17.2 61 16.2 94 94 N N/A 29.98 1015 10 16 N/A
7:35 am 07:35 Sunny 64 17.5 61 16.3 93 93 N N/A 29.98 1015 10 16 N/A
7:55 am 07:55 Sunny 65 18.1 61 16.3 89 89 NNE 3 6 29.99 1016 10 16 N/A
8:15 am 08:15 Sunny 65 18.6 61 16.2 86 86 N 5 7 30.00 1016 10 16 N/A
8:35 am 08:35 Sunny 66 19 60 15.7 81 81 N 5 7 30.00 1016 10 16 N/A
8:55 am 08:55 Sunny 67 19.3 59 15.2 77 77 N 5 7 30.02 1016 10 16 N/A
9:15 am 09:15 Sunny 68 19.9 58 14.7 72 72 NE 7 11 30.02 1017 10 16 N/A
9:35 am 09:35 Sunny 68 20.1 56 13.3 65 65 N N/A 30.01 1016 10 16 N/A
9:55 am 09:55 Sunny 69 20.5 56 13.6 65 65 N N/A 30.01 1016 10 16 N/A
10:15 am 10:15 Sunny 69 20.4 55 13 63 63 N N/A 30.01 1016 10 16 N/A
10:35 am 10:35 Sunny 70 21.1 57 13.9 64 64 NE 5 7 30.01 1016 10 16 N/A
10:55 am 10:55 Sunny 71 21.6 57 13.8 61 61 N N/A 30.02 1017 10 16 N/A
11:15 am 11:15 Sunny 71 21.7 57 13.9 61 61 N 3 6 30.02 1017 10 16 N/A
11:35 am 11:35 Sunny 72 22.1 56 13.3 58 58 E 3 6 30.02 1017 10 16 N/A
11:55 am 11:55 Sunny 73 22.7 57 14 58 58 E 5 7 30.02 1017 10 16 N/A
12:15 pm 12:15 Sunny 72 22.4 56 13.3 57 57 N N/A 30.02 1017 10 16 N/A
12:35 pm 12:35 Sunny 74 23.2 57 13.8 56 56 ESE 3 6 30.02 1016 10 16 N/A
12:55 pm 12:55 Sunny 73 23 56 13.5 55 55 WSW 3 6 30.02 1017 10 16 N/A
1:15 pm 13:15 Sunny 75 23.9 58 14.3 55 55 SSE 3 6 30.02 1016 10 16 N/A
1:35 pm 13:35 Sunny 75 23.8 57 13.8 54 54 N N/A 30.02 1016 10 16 N/A
1:55 pm 13:55 Sunny 75 24 57 14 54 54 ENE 3 6 30.01 1016 10 16 N/A
2:15 pm 14:15 Sunny 75 24.1 58 14.2 54 54 N N/A 30.01 1016 10 16 N/A
2:35 pm 14:35 Sunny 76 24.3 57 14 53 53 NNW 6 9 29.99 1016 10 16 N/A
2:55 pm 14:55 Sunny 76 24.5 57 13.9 52 52 N N/A 29.99 1016 10 16 N/A
3:15 pm 15:15 Sunny 76 24.7 56 13.4 49 49 NW 3 6 29.99 1016 10 16 N/A
3:35 pm 15:35 Sunny 78 25.3 57 14 50 50 N N/A 29.98 1015 10 16 N/A
3:55 pm 15:55 Sunny 77 25.2 56 13.3 48 48 NW 3 6 29.97 1015 10 16 N/A
4:15 pm 16:15 Sunny 78 25.5 59 15 52 52 SW 5 7 29.97 1015 10 16 N/A
4:35 pm 16:35 Sunny 78 25.6 58 14.6 51 51 NNW 3 6 29.97 1015 10 16 N/A
4:55 pm 16:55 Sunny 78 25.5 57 13.8 48 48 WNW 3 6 29.98 1015 10 16 N/A
5:15 pm 17:15 Sunny 78 25.3 57 14.1 50 50 W 3 6 29.97 1015 10 16 N/A
5:35 pm 17:35 Sunny 77 25.2 58 14.6 52 52 NW 3 6 29.97 1015 10 16 N/A
5:55 pm 17:55 Sunny 77 25 58 14.2 51 51 NW 3 6 29.97 1015 10 16 N/A
6:15 pm 18:15 Partly Cloudy 76 24.7 59 15 55 55 NW 5 7 29.98 1015 10 16 N/A
6:35 pm 18:35 Partly Cloudy 76 24.6 60 15.4 57 57 N 3 6 29.97 1015 10 16 N/A
6:55 pm 18:55 Mostly Cloudy 76 24.3 63 17.1 64 64 NNW 3 6 29.99 1016 10 16 N/A
7:15 pm 19:15 Cloudy 75 24 62 16.6 63 63 WNW 3 6 30.00 1016 10 16 N/A
7:35 pm 19:35 Partly Cloudy 74 23.4 64 17.7 70 70 NW 3 6 30.00 1016 10 16 N/A
7:55 pm 19:55 Sunny 74 23.2 65 18.5 75 75 N 3 6 29.98 1015 10 16 N/A
8:15 pm 20:15 Sunny 73 22.7 65 18.6 78 78 ESE 3 6 29.97 1015 10 16 N/A
8:35 pm 20:35 Sunny 73 22.9 64 17.5 72 72 N N/A 29.96 1014 10 16 N/A
8:55 pm 20:55 Partly Cloudy 71 21.7 67 19.2 86 86 N N/A 29.95 1014 10 16 N/A
9:15 pm 21:15 Mostly Cloudy with Light Rain 73 22.8 61 16 66 66 ESE 5 7 29.94 1014 10 16 N/A
9:35 pm 21:35 Clear 73 22.5 60 15.5 65 65 E 7 11 29.92 1013 10 16 N/A
9:55 pm 21:55 Clear 72 22.4 60 15.4 65 65 E 5 7 29.94 1014 10 16 N/A
10:15 pm 22:15 Partly Cloudy 71 21.6 62 16.4 72 72 N N/A 29.95 1014 10 16 N/A
10:35 pm 22:35 Cloudy 69 20.4 65 18.4 88 88 WNW 3 6 29.97 1015 10 16 N/A
10:55 pm 22:55 Cloudy 68 20.1 65 18.4 90 90 N N/A 29.96 1015 10 16 N/A
11:15 pm 23:15 Mostly Cloudy 68 20.2 66 18.7 91 91 N 3 6 29.97 1015 10 16 N/A
11:35 pm 23:35 Mostly Cloudy 68 20 64 17.9 88 88 N 3 6 29.97 1015 10 16 N/A
11:55 pm 23:55 Cloudy 67 19.7 63 17.4 87 87 N 6 9 29.98 1015 10 16 N/A

Powered by AerisWeather